Faith, SD

11:36 PM MDT on May 27, 2017 (GMT -0600)
Faith

Weather History for KD07 - August, 2014

Change the Weather History Date:

Saturday, August 9, 2014

  Actual Average Record
Temperature  
Mean Temperature 74 °F 73 °F  
Max Temperature 85 °F 87 °F 97 °F (2007)
Min Temperature 63 °F 60 °F 51 °F (2004)
Degree Days  
Heating Degree Days 0 0  
Month to date heating degree days 0 0  
Since 1 June heating degree days 122 102  
Since 1 July heating degree days 17 12  
Cooling Degree Days 9 9  
Month to date cooling degree days 57 81  
Year to date cooling degree days 285 426  
Since 1 June cooling degree days 255 414  
Growing Degree Days 24 (Base 50)    
Moisture  
Dew Point 62 °F    
Average Humidity 72    
Maximum Humidity 100    
Minimum Humidity 43    
Precipitation  
Precipitation 0.17 in 0.06 in 0.30 in (2015)
Month to date precipitation 0.29 0.58  
Year to date precipitation 11.23 12.77  
Sea Level Pressure  
Sea Level Pressure 29.98 in    
Wind  
Wind Speed 7 mph (East)    
Max Wind Speed 26 mph    
Max Gust Speed 40 mph    
T = Trace of Precipitation, MM = Missing Value Source: NWS Daily Summary

Daily Weather History Graph

Daily Weather History Graph

Search for Another Location

Airport or City:

Trip Planner

Search our weather history database for the weather conditions in past years. The results will help you decide how hot, cold, wet, or windy it might be!

Date:

Astronomy

Aug. 09, 2014 Rise Set
Actual Time 5:42 AM MDT 8:03 PM MDT
Civil Twilight 5:09 AM MDT 8:36 PM MDT
Nautical Twilight 4:29 AM MDT 9:16 PM MDT
Astronomical Twilight 3:43 AM MDT 10:02 PM MDT
Moon 7:05 PM MDT (8/9) 4:25 AM MDT (8/9)
Length of Visible Light 15h 26m
Length of Day
14h 21m
Waxing Gibbous, 98% of the Moon is Illuminated
Aug 9
Waxing Gibbous
Aug 10
Full
Aug 17
Last Quarter
Aug 25
New
Sep 2
First Quarter

Hourly Weather History & Observations

Time (MDT) Temp. Heat Index Dew Point Humidity Pressure Visibility Wind Dir Wind Speed Gust Speed Precip Events Conditions
12:56 AM 63.0 °F - 62.1 °F 97% 29.96 in - SE 10.4 mph - N/A   Unknown
1:56 AM 64.0 °F - 64.0 °F 100% 29.96 in - SE 9.2 mph - N/A   Unknown
2:56 AM 64.9 °F - 64.9 °F 100% 29.97 in - SSE 9.2 mph - N/A   Unknown
3:56 AM 64.9 °F - 64.9 °F 100% 29.96 in - SE 10.4 mph - N/A   Unknown
4:56 AM 64.0 °F - 64.0 °F 100% 29.95 in - SSE 5.8 mph - N/A   Unknown
5:56 AM 64.0 °F - 63.0 °F 96% 29.95 in - East 3.5 mph - N/A   Unknown
6:56 AM 64.9 °F - 64.0 °F 97% 29.97 in - ESE 5.8 mph - N/A   Unknown
7:56 AM 64.9 °F - 64.0 °F 97% 29.98 in - ESE 8.1 mph - N/A   Unknown
8:56 AM 71.1 °F - 64.0 °F 78% 29.98 in - SE 8.1 mph - N/A   Unknown
9:56 AM 73.9 °F - 62.1 °F 66% 29.97 in - East 5.8 mph - N/A   Unknown
10:56 AM 75.9 °F - 61.0 °F 60% 29.98 in - East 8.1 mph - N/A   Unknown
11:56 AM 78.1 °F - 62.1 °F 58% 29.98 in - East 8.1 mph - N/A   Unknown
12:56 PM 79.0 °F - 61.0 °F 54% 29.97 in - ENE 11.5 mph - N/A   Unknown
1:56 PM 82.9 °F 83.3 °F 61.0 °F 47% 29.97 in - NE 8.1 mph - N/A   Unknown
2:56 PM 81.0 °F 81.3 °F 59.0 °F 47% 29.97 in - NNE 5.8 mph - N/A   Unknown
3:56 PM 84.0 °F 83.8 °F 59.0 °F 43% 29.96 in - Calm Calm - N/A   Unknown
4:56 PM 82.0 °F 82.0 °F 57.9 °F 44% 29.96 in - NNE 11.5 mph - N/A   Unknown
5:56 PM 82.9 °F 82.8 °F 59.0 °F 44% 29.98 in - NNE 9.2 mph - N/A   Unknown
6:56 PM 79.0 °F - 59.0 °F 50% 29.98 in - ENE 10.4 mph - N/A   Unknown
7:56 PM 73.0 °F - 61.0 °F 66% 30.02 in - NE 9.2 mph - N/A   Unknown
8:56 PM 69.1 °F - 61.0 °F 75% 30.04 in - East 5.8 mph - N/A   Unknown
9:56 PM 66.9 °F - 61.0 °F 81% 30.04 in - ENE 3.5 mph - N/A   Unknown
10:56 PM 68.0 °F - 62.1 °F 81% 30.04 in - Calm Calm - N/A   Unknown
11:56 PM 64.9 °F - 61.0 °F 87% 30.06 in - NNW 4.6 mph - N/A   Unknown